OBJECT A

Satellite information

Favourite Embed

Satellite Type and Status

UNKNOWNIN ORBIT

Key statistics

Satellite OBJECT A at a glance.

Uptime

1144

Days in orbit

Revolutions

≈ 14.0

Per day

Orbit

LEO

Low Earth Orbit

Inclination

86.0

Latest

Satellite identification and parameters

Extended collection of information and parameters for OBJECT A.

Object identification

Identified? True

Debris? False

Object name: OBJECT A

International designator: 2022-056A

Object number (NORAD): 52716

Object ID (CCSDS): 52716

Country: PEOPLES REPUBLIC OF CHINA (PRC)

Current information (Y/N): Y

RCS size: LARGE

Orbital parameters

Period: 102.545 minutes

Inclination: 86.0059 deg

SMA: 7257.206 km

Apoapsis: 893.366 km

Periapsis: 864.776 km

RAAN: 176.0618 deg

Eccentricy: 0.0019698

Argument of periapsis: 18.0999 deg

Mean anomaly: 342.0876 deg

Mean motion: 14.04263445 rev/day

Mean motion (dot): 0.0000015 rev/day2

B* drag term: 0.000082574 1/REarth

Two-line elements (TLE)

Creation date: July 6, 2025, 10:46 p.m.

Reference frame: TEME

Reference center: EARTH

Epoch: July 6, 2025, 8:36 p.m. UTC

TLE line 0: 0 OBJECT A

TLE line 1: 1 52716U 22056A 25187.85900356 .00000150 00000-0 82574-4 0 9991

TLE line 2: 2 52716 86.0059 176.0618 0019698 18.0999 342.0876 14.04263445160425

Live tracking on map

Real-time ground track for satellite OBJECT A.

In-orbit conjunctions

There are no conjunctions computed for OBJECT A, at the moment. Check back to stay up to date, as we update our databases every day.

Go to all conjunctions

Associated space launch

"Ronghe Shiyan Weixing" (RSW) = "Integrated Experimental Satellite" are test satellites that will be used to develop a state-owned Chinese low-earth orbit constellation, Xingwang, consisting of several thousand satellites.

OBJECT A was lifted into orbit during the mission ‘Long March 2C/YZ-1S | RSW-04 - 06’, on board a Long March 2C/YZ-1S space rocket.

The launch took place on May 20, 2022, 10:30 a.m. from Launch Area 4 (SLS-2 / 603).

For more information about the launch, click the button.

Launch to space Long March 2C/YZ-1S | RSW-04 - 06
Long March 2C/YZ-1S | RSW-04 - 06

Agency: N/A

Status: Launch Successful

Launch date: May 20, 2022, 10:30 a.m. UTC

Rocket: Long March 2C/YZ-1S

Launch pad: Launch Area 4 (SLS-2 / 603)

Location: Jiuquan Satellite Launch Center, People's Republic of China

...

Latest news about this satellite

There are no fresh news available about this satellite. Check back as we update our databases every day.


Newsletter sign-up

Weekly statistics, charts and insights to help you stay on top of the space industry.